St. Johns, AZ

1:54 PM MST on April 26, 2017 (GMT -0700)
Saint Johns Industrial

Weather History for KSJN - November, 2013

Change the Weather History Date:

Sunday, November 3, 2013

  Actual Average (KLSB) Record (KLSB)
Temperature  
Mean Temperature 42 °F -  
Max Temperature 57 °F 70 °F 73 °F (2015)
Min Temperature 28 °F 33 °F 44 °F (2014)
Degree Days  
Heating Degree Days 22    
Moisture  
Dew Point 30 °F    
Average Humidity 43    
Maximum Humidity 73    
Minimum Humidity 21    
Precipitation  
Precipitation 0.00 in - - ()
Sea Level Pressure  
Sea Level Pressure 29.78 in    
Wind  
Wind Speed 9 mph (SW)    
Max Wind Speed 23 mph    
Max Gust Speed 37 mph    
Visibility 10 miles    
Events      
Averages and records for this station are not official NWS values.
T = Trace of Precipitation, MM = Missing Value Source: NWS Daily Summary

Daily Weather History Graph

Daily Weather History Graph

Search for Another Location

Airport or City:

Trip Planner

Search our weather history database for the weather conditions in past years. The results will help you decide how hot, cold, wet, or windy it might be!

Date:

Astronomy

Nov. 03, 2013 Rise Set
Actual Time 6:39 AM MST 5:21 PM MST
Civil Twilight 6:13 AM MST 5:47 PM MST
Nautical Twilight 5:43 AM MST 6:17 PM MST
Astronomical Twilight 5:14 AM MST 6:47 PM MST
Moon 6:46 AM MST (11/3) 5:40 PM MST (11/3)
Length of Visible Light 11h 34m
Length of Day
10h 41m
New Moon, 0% of the Moon is Illuminated
Nov 3
New Moon
Nov 9
First Quarter
Nov 17
Full
Nov 25
Last Quarter
Dec 2
New

Hourly Weather History & Observations

Time (MST) Temp. Windchill Dew Point Humidity Pressure Visibility Wind Dir Wind Speed Gust Speed Precip Events Conditions
12:54 AM 46.9 °F - 16.0 °F 29% 29.86 in 10.0 mi West 4.6 mph - N/A   Clear
1:54 AM 46.0 °F 42.5 °F 16.0 °F 30% 29.84 in 10.0 mi SSE 6.9 mph - N/A   Overcast
2:54 AM 51.1 °F - 28.0 °F 41% 29.80 in 10.0 mi ESE 5.8 mph - N/A   Clear
3:54 AM 52.0 °F - 30.9 °F 45% 29.77 in 10.0 mi SSE 9.2 mph - N/A   Clear
4:54 AM 48.9 °F - 30.9 °F 50% 29.79 in 10.0 mi Variable 4.6 mph - N/A   Clear
5:54 AM 44.1 °F - 28.9 °F 55% 29.82 in 10.0 mi Calm Calm - N/A   Clear
6:54 AM 42.1 °F 39.2 °F 28.0 °F 58% 29.84 in 10.0 mi WSW 4.6 mph - N/A   Scattered Clouds
7:54 AM 50.0 °F - 34.0 °F 54% 29.83 in 10.0 mi South 9.2 mph - N/A   Clear
8:54 AM 57.0 °F - 35.1 °F 44% 29.80 in 10.0 mi SSW 10.4 mph - N/A   Scattered Clouds
9:54 AM 59.0 °F - 33.1 °F 38% 29.79 in 10.0 mi SW 18.4 mph - N/A   Mostly Cloudy
10:54 AM 64.0 °F - 35.1 °F 34% 29.78 in 10.0 mi WSW 21.9 mph 25.3 mph N/A   Mostly Cloudy
11:54 AM 64.0 °F - 33.1 °F 31% 29.76 in 10.0 mi SW 23.0 mph 36.8 mph N/A   Mostly Cloudy
12:54 PM 64.0 °F - 33.1 °F 31% 29.72 in 10.0 mi WSW 21.9 mph 31.1 mph N/A   Mostly Cloudy
1:54 PM 64.9 °F - 34.0 °F 32% 29.70 in 10.0 mi WSW 20.7 mph 31.1 mph N/A   Partly Cloudy
2:54 PM 64.9 °F - 33.1 °F 31% 29.67 in 10.0 mi WSW 23.0 mph 33.4 mph N/A   Scattered Clouds
3:54 PM 64.0 °F - 32.0 °F 30% 29.67 in 10.0 mi SW 19.6 mph 28.8 mph N/A   Clear
4:54 PM 61.0 °F - 34.0 °F 36% 29.69 in 10.0 mi SW 15.0 mph 24.2 mph N/A   Clear
5:54 PM 57.0 °F - 33.1 °F 40% 29.74 in 10.0 mi WSW 11.5 mph - N/A   Clear
6:54 PM 54.0 °F - 34.0 °F 47% 29.78 in 10.0 mi West 15.0 mph - N/A   Clear
7:54 PM 52.0 °F - 35.1 °F 53% 29.77 in 10.0 mi SW 9.2 mph - N/A   Clear
8:54 PM 46.9 °F - 34.0 °F 61% 29.78 in 10.0 mi SE 6.9 mph - N/A   Clear
9:54 PM 46.0 °F 43.9 °F 34.0 °F 63% 29.78 in 10.0 mi SSW 4.6 mph - N/A   Clear
10:54 PM 43.0 °F 40.3 °F 33.1 °F 68% 29.78 in 10.0 mi SSE 4.6 mph - N/A   Clear
11:54 PM 36.0 °F - 28.0 °F 73% 29.80 in 10.0 mi Calm Calm - N/A   Clear